Showing default

VELA 2, 674

Orbit data source: Space-Track

VELA 2, 674 is a payload satellite owned by USAF SSD (US) in HEO that was launched on Thu, 17 Oct 1963 UTC via an ATLAS AGENA D launch vehicle from the Air Force Eastern Test Range (AFETR). Payload-class satellites include a variety of spacecraft equipped with specific instruments for various scientific and technological missions. These include communications satellites like Starlink; space stations such as the ISS; scientific satellites like the Hubble; Earth observation satellites from companies like Planet Labs, Umbra, and HawkEye 360; GPS; miniature CubeSats for education and research; and military/defense satellites.

Not visible in the next 10 days
Identifier
674, 1963-039A
Orbit
HEO
Country
Flag of USUS
Related business
Manufacturer
TRW
Mission
Defense Early Warn
Bus & Motor
VELA, BE3A
Mass
~217 kg wet, 115 kg dry
Launch date (UTC)
1963-10-17 (62 years ago)
Launch vehicle
ATLAS AGENA D
Launch site
Air Force Eastern Test Range (AFETR)
Object type
Payload
Rocket body
Debris
Shape & HBR
Poly, 0.7 m
Radar Cross Section
2.240 m², Small (<0.1 m²)

Expand to show TLE details & history
Last TLE update: 4 weeks ago

TLE from 4 weeks ago
0 VELA 2
1   674U 63039A   25233.70687258 -.00000484  00000-0  00000+0 0  9992
2   674  46.9199 107.0652 5061239  83.4591 359.8149  0.22192263 50173
Epoch: 2025-08-21T16:57Z
TLE epoch observation values (Epoch: 2025-08-21T16:57:53.79Z)
Latitude
46.68798°
Longitude
-36.62169°
Altitude
50,222.826 km
Speed
3.26 km/s
True Right ascension
12h 32m 28s
True Declination
46° 39' 59"
Sunlit
Object was in daylight at epoch
Visualization orbit readout
Latitude
Unknown
Longitude
Unknown
Altitude
Unknown
Speed
Unknown
Apparent Right ascension
Unknown
Apparent Declination
Unknown
Sunlit
N/A
Visualization observer readout
Local Sidereal Time
19:42:11
Azimuth
Unknown
Elevation
Unknown
Doppler factor
Unknown
Orbital elements
Apogee altitude
167,186.88 km
Perigee altitude
50,535.915 km
Semi-major axis
115,239.535 km
Eccentricity
0.50612
Inclination
46.9199°
RAAN
107.0652°
Arg. of periapsis
83.4591°
True anomaly
359.34551°
Mean anomaly
359.8149°
Eccentric anomaly
359.62521°
Mean motion
0.05548 °/min
Orbital period
6,488.76 mins
BSTAR
0
Loading maneuver chart data...
Computing Atmospheric mass density...
Loading historical data...
Loading historical data...
Loading historical data...
Loading historical data...
Loading historical data...
Loading historical data...
Loading historical data...
Other satellites on launch #39 in the year 1963 (1963-10-17 UTC)

Documentation

Showing up to 5 results
|